www.pogodaiklimat.ru

Погода и климат >> Архив погоды >> Казахстан >> Чингирлау


ПОГОДА в Чингирлау

  • Прогноз погоды в Чингирлау
  • Монитор погоды в Чингирлау

АРХИВ ПОГОДЫ в Чингирлау

Время (UTC), дата Ветер
(напр.,м/с)
 
Видим.   Явления Облачность Т
(С)
Тd
(С)
f
(%)
Тe
(С)
Тes
(С)
Комфортность P
(гПа)
Po
(гПа)
Тmin
(С)
Tmax
(С)
R
(мм)
R24
(мм)
S
(см)
21 10.08 СЗ 2 н/о 8/8 600 м
[Sc]
+22.6 +10.7 47 +25 +25 комфорт 1004.8 993.0
00 11.08 штиль 0 н/о 6/6 600 м
[Sc]
+19.2 +10.8 58 +20 +20 1004.9 993.0
03 11.08 С 2 20 км 10/10 600 м
[Cb cap]
+19.0 +11.0 60 +20 +20 1004.9 993.0
06 11.08 С 1 20 км 9/9 600 м
[Sc]
+21.1 +15.2 69 +24 +25 комфорт 1003.6 991.8 +18.5
09 11.08 СВ 2 10 км слаб. ливневой дождь 10/10 600 м
[Cb cap]
+20.1 +17.0 82 +24 +24 комфорт 1004.3 992.4
12 11.08 СЗ 3 4000 м ливневой дождь 10/10 600 м
[Cb cap]
+16.1 +14.2 88 +16 +16 1004.3 992.3
15 11.08 Ю 3 4000 м гроза, ливневой дождь 10/10 600 м
[Cb cap]
+15.7 +15.0 96 +15 +15 1003.3 991.3 +21.6
18 11.08 Ю 3 н/о {гроза, ливн. осадки} 10/10 600 м
[Cb cap]
+15.2 +13.1 87 +14 +14 1003.0 990.9 22
21 11.08 ЮВ 1 н/о {ливн. осадки} 10/10 600 м
[Cb cap]
+14.5 +12.9 90 +15 +15 1002.3 990.2
00 12.08 С 2 н/о {ливн. осадки} 10/10 600 м
[Cb cap]
+14.3 +11.9 85 +14 +14 1002.0 989.9
03 12.08 СЗ 3 20 км 8/8 600 м
[Sc]
+15.0 +13.6 91 +14 +14 1002.3 990.2
06 12.08 СЗ 5 20 км 10/10 600 м
[Sc]
+16.0 +12.4 79 +15 +15 1002.8 990.8 +14.2 3
09 12.08 С 6 10 км слаб. ливневой дождь 10/10 600 м
[Cb cap]
+19.0 +14.1 73 +20 +20 1002.8 990.8
12 12.08 С 6 10 км слаб. ливневой дождь {гроза} 10/10 600 м
[Cb cap]
+15.6 +13.4 87 +14 +14 1004.5 992.3
15 12.08 С 6 20 км {ливн. осадки} 9/9 600 м
[Cb cap]
+15.0 +11.7 81 +13 +13 1004.8 992.6 +19.4
18 12.08 СЗ 4 н/о {ливн. осадки} 9/9 600 м
[Cb cap]
+11.7 +8.5 81 +10 +10 1007.0 994.7 +19.4 5
21 12.08 СЗ 5 н/о 9/9 600 м
[Cb cap]
+11.3 +8.5 83 +9 +9 1006.8 994.5
00 13.08 СЗ 5 н/о 9/9 600 м
[Cb cap]
+10.0 +7.3 83 +7 +7 1006.7 994.4
03 13.08 СЗ 6 20 км 9/9 600 м
[Cb cap]
+9.0 +7.1 88 +5 +5 1007.1 994.7
06 13.08 СЗ 6 20 км 10/10 600 м
[Sc]
+10.0 +7.5 84 +7 +7 1007.3 994.9 +8.8
09 13.08 СЗ 6 10 км слаб. ливневой дождь 10/10 600 м
[Cb cap]
+10.4 +8.4 87 +7 +7 1007.8 995.5
12 13.08 СЗ 7 20 км {ливн. осадки} 10/10 600 м
[Cb cap]
+10.6 +9.4 92 +7 +7 1008.2 995.9
15 13.08 С 5 20 км 10/10 600 м
[Sc diur, vesp]
+12.2 +7.2 71 +10 +10 1009.5 997.2 +12.4
18 13.08 С 6 н/о 10/10 600 м
[Sc]
+12.4 +7.0 70 +10 +10 1009.9 997.6 +12.4 2
21 13.08 С 4 н/о 10/10 600 м
[Sc]
+12.2 +6.8 70 +10 +10 1009.7 997.4
00 14.08 С 5 н/о 10/10 600 м
[Sc]
+11.9 +6.9 71 +10 +10 1009.8 997.5
03 14.08 С 6 20 км 10/10 600 м
[Sc]
+12.2 +7.7 74 +10 +10 1010.2 997.9
06 14.08 С 8 20 км 10/10 600 м
[Sc]
+13.9 +11.3 84 +11 +11 1010.5 998.3 +11.6
09 14.08 С 6 20 км 10/10 600 м
[Sc]
+16.8 +13.4 80 +16 +16 1011.2 999.1
12 14.08 С 6 20 км 9/9 600 м
[Sc]
+20.6 +16.1 75 +24 +24 комфорт 1011.4 999.5
15 14.08 С 4 20 км 9/9 600 м
[Sc]
+20.2 +15.5 74 +23 +23 комфорт 1012.7 1000.7 +20.8
18 14.08 С 3 н/о 8/0
[Ac trans]
+17.2 +12.5 74 +17 +17 1013.8 1001.7 +20.8
21 14.08 С 3 н/о 4/0
[Ac trans]
+14.0 +9.7 75 +13 +13 1014.5 1002.2
00 15.08 С 1 н/о 4/0
[Ac trans]
+13.4 +9.7 78 +14 +14 1015.1 1002.8
03 15.08 штиль 0 1000 м дымка ясно +12.9 +11.6 92 +12 +15 1016.4 1004.1
06 15.08 С 1 4000 м дымка ясно +16.0 +13.5 85 +17 +29 опасность
простуды
1017.7 1005.5 +12.7
09 15.08 СВ 1 20 км 9/0
[Ci]
+18.9 +14.8 77 +21 +34 комфорт 1018.2 1006.1
12 15.08 штиль 0 20 км 5/0
[Ac trans]
+22.1 +17.1 73 +27 +32 душно 1017.6 1005.7
15 15.08 С 1 20 км ясно +23.1 +17.8 72 +29 +29 очень
душно
1017.2 1005.3 +23.6
18 15.08 В 1 н/о ясно +18.2 +14.8 81 +20 +20 1018.1 1006.0 +23.6
21 15.08 штиль 0 н/о ясно +15.5 +12.0 80 +15 +15 1018.7 1006.5
00 16.08 штиль 0 н/о ясно +13.9 +11.7 87 +13 +13 1019.2 1006.9
03 16.08 штиль 0 4000 м дымка ясно +15.2 +14.5 96 +15 +17 1019.6 1007.3
06 16.08 ЮВ 1 20 км ясно +22.8 +18.0 74 +28 +40 душно 1019.0 1007.1 +13.7
09 16.08 С 1 20 км ясно +26.2 +15.3 51 +29 +45 жарко 1018.0 1006.2
12 16.08 С 1 20 км ясно +28.2 +13.6 41 +30 +37 жарко 1016.9 1005.2
15 16.08 В 2 20 км 5/0
[Ac lent]
+27.3 +14.1 44 +29 +30 жарко 1016.3 1004.6 +28.5
18 16.08 В 1 н/о ясно +23.1 +14.5 58 +27 +27 душно 1016.8 1004.9 +28.5
21 16.08 ЮВ 1 н/о ясно +19.9 +13.0 64 +23 +23 комфорт 1017.2 1005.2
00 17.08 ЮВ 2 н/о ясно +18.0 +12.0 68 +19 +19 1017.7 1005.6
03 17.08 ЮВ 2 20 км 5/0
[Ac lent]
+19.1 +12.3 65 +21 +22 комфорт 1018.1 1006.0
06 17.08 штиль 0 20 км ясно +26.9 +11.0 37 +28 +41 жарко 1018.3 1006.5 +17.7
12 17.08 штиль 0 20 км 5/0
[Ac trans]
+31.4 +11.8 30 +32 +38 жарко 1017.0 1005.4

 

Местоположение метеостанции Чингирлау (Западно-Казахстанская область, Казахстан): широта 51.08 долгота 54.10 высота над уровнем моря 105 м.

В архиве по умолчанию представлена погода в Чингирлау за последнюю неделю. Архивные данные за месяц целиком и за предыдущие месяцы, начиная с января 2011 года, Вы можете получить, выбрав интересующий диапазон дат из раскрывающегося списка и нажав кнопку "Ввод!".


*Определитесь, кто Вы:
робот инопланетянин человек

Внимание! Время в таблицах - всемирное. Для получения местного времени необходимо прибавить поправку, которая равна 4 ч.

Смотрите также архив погоды в соседних городах и на ближайших метеорологических станциях:

Погода в Соль-Илецк (Оренбургская область, Россия) (65 км)
Погода в Илеке (Оренбургская область, Россия) (71 км)
Погода в Аксае (Западно-Казахстанская область, Казахстан) (78 км)
Погода в Оренбурге (Оренбургская область, Россия) (96 км)
Погода в Акбулаке (Оренбургская область, Россия) (107 км)
Погода в Новокуйбышевске (Самарская область, Россия) (107 км)
Погода в Новосергиевке (Оренбургская область, Россия) (116 км)
Погода в Татарской Каргале (Оренбургская область, Россия) (118 км)
Погода в Джамбейты (Западно-Казахстанская область, Казахстан) (142 км)
Погода в Анкаты (Западно-Казахстанская область, Казахстан) (150 км)

Пояснения к столбцам:

Ветер - указаны скорость ветра в м/с - средняя за 10 мин, порывы в срок и между сроками (в фигурных скобках) и направление, откуда дует ветер: С - северный, СВ - северо-восточный, В - восточный, ЮВ - юго-восточный, Ю - южный, ЮЗ - юго-западный, З - западный, СЗ - северо-западный.
Видимость - горизонтальная дальность видимости в метрах или километрах. При видимости от 1 до 10 км при отсутствии осадков обычно наблюдается дымка, при ухудшении видимости до 1 км и менее - туман. В сухую погоду видимость может ухудшаться дымом, пылью или мглою.
Явления - указаны атмосферные явления, наблюдавшиеся в срок или в последний час перед сроком; фигурными скобками обозначены явления, наблюдавшиеся между сроками (за 1-3 часа до срока); квадратными скобками обозначены град или гололедные отложения с указанием их диаметра в мм.
Облачность - указаны через наклонную черту общая и нижняя облачность в баллах и высота нижней границы облаков в метрах; квадратными скобками обозначены формы облаков: Ci - перистые, Cs - перисто-слоистые, Cc - перисто-кучевые, Ac - высококучевые, As - высокослоистые, Sc - слоисто-кучевые, Ns - слоисто-дождевые, Cu - кучевые, Cb - кучево-дождевые. Подробнее классификацию облаков см. в Атласе облаков (PDF).
T - Температура воздуха - температура, измеренная на высоте 2 м над землей.
Td - Температура точки росы - температура, при понижении до которой содержащийся в воздухе водяной пар достигнет насыщения.
f - Относительная влажность воздуха - влажноcть воздуха, измеренная на высоте 2 м над землей.
Te - Эффективная температура - температура, которую ощущает одетый по сезону человек в тени. Характеристика душности погоды. При расчете учитывается влияние влажности воздуха и скорости ветра на теплоощущения человека.
Tes - Эффективная температура на солнце - температура, которую ощущает человек, с поправкой на солнечный нагрев. Характеристика знойности погоды. Зависит от высоты солнца над горизонтом, облачности и скорости ветра. Ночью, в пасмурную погоду, а также при ветре 12 м/с и более поправка равна нулю.
P - Атмосферное давление - приведенное к уровню моря атмосферное давление.
Po - Атмосферное давление - измеренное на уровне метеостанции атмосферное давление.
Tmin - Минимальная температура - минимум температуры воздуха на высоте 2 м над землей.
Tmax - Максимальная температура - максимум температуры воздуха на высоте 2 м над землей.
R - Количество осадков - Количество выпавших осадков за период времени, мм. При наведении курсора мыши на число - период времени, за который выпало указанное количество осадков.
R24 - Количество осадков - Количество выпавших осадков за 24 часа, мм.
S - Снежный покров - Высота снежного покрова, см. При наведении курсора мыши на число - состояние снежного покрова и степень покрытия местности в баллах.